TimeEST,TemperatureF,Dew PointF,Humidity,Sea Level PressureIn,VisibilityMPH,Wind Direction,Wind SpeedMPH,Gust SpeedMPH,PrecipitationIn,Events,Conditions,WindDirDegrees,DateUTC
12:15 AM,25.9,22.3,86,30.24,10.0,North,-9999.0,-,N/A,,Clear,0,2012-12-12 05:15:00
12:35 AM,25.3,21.9,87,30.25,10.0,North,-9999.0,-,N/A,,Clear,0,2012-12-12 05:35:00
12:55 AM,24.6,21.6,88,30.25,10.0,North,-9999.0,-,N/A,,Clear,0,2012-12-12 05:55:00
1:15 AM,24.8,21.9,89,30.25,10.0,North,-9999.0,-,N/A,,Clear,0,2012-12-12 06:15:00
1:35 AM,25.2,21.6,86,30.26,10.0,North,-9999.0,-,N/A,,Clear,0,2012-12-12 06:35:00
1:55 AM,24.3,21.6,89,30.27,10.0,North,-9999.0,-,N/A,,Clear,0,2012-12-12 06:55:00
2:15 AM,24.3,21.9,91,30.27,10.0,North,-9999.0,-,N/A,,Clear,0,2012-12-12 07:15:00
2:35 AM,25.0,22.6,91,30.27,10.0,North,-9999.0,-,N/A,,Clear,0,2012-12-12 07:35:00
2:55 AM,24.4,22.3,91,30.28,10.0,North,-9999.0,-,N/A,,Clear,0,2012-12-12 07:55:00
3:15 AM,24.8,22.6,91,30.28,10.0,North,-9999.0,-,N/A,,Clear,0,2012-12-12 08:15:00
3:35 AM,23.4,21.6,93,30.29,10.0,North,-9999.0,-,N/A,,Clear,0,2012-12-12 08:35:00
3:55 AM,23.0,21.4,94,30.30,7.0,North,-9999.0,-,N/A,,Clear,0,2012-12-12 08:55:00
4:15 AM,23.0,21.0,92,30.31,10.0,North,-9999.0,-,N/A,,Clear,0,2012-12-12 09:15:00
4:35 AM,23.7,21.9,93,30.31,7.0,South,5.8,-,N/A,,Clear,170,2012-12-12 09:35:00
4:55 AM,22.1,19.9,91,30.31,7.0,North,-9999.0,-,N/A,,Clear,0,2012-12-12 09:55:00
5:15 AM,22.5,21.0,94,30.32,7.0,North,-9999.0,-,N/A,,Clear,0,2012-12-12 10:15:00
5:35 AM,22.1,20.8,95,30.32,7.0,North,-9999.0,-,N/A,,Clear,0,2012-12-12 10:35:00
5:55 AM,21.6,20.3,95,30.32,7.0,North,-9999.0,-,N/A,,Clear,0,2012-12-12 10:55:00
6:15 AM,22.1,21.2,96,30.33,5.0,SSW,3.5,-,N/A,,Clear,210,2012-12-12 11:15:00
6:35 AM,22.1,21.4,97,30.34,5.0,North,-9999.0,-,N/A,,Clear,0,2012-12-12 11:35:00
6:55 AM,21.7,21.0,97,30.34,4.0,North,-9999.0,-,N/A,,Clear,0,2012-12-12 11:55:00
7:15 AM,21.9,21.2,97,30.35,5.0,North,-9999.0,-,N/A,,Clear,0,2012-12-12 12:15:00
7:20 AM,21.2,21.2,100,30.35,7.0,Calm,Calm,-,N/A,,Clear,0,2012-12-12 12:20:00
7:50 AM,21.2,19.4,93,30.36,7.0,Calm,Calm,-,N/A,,Clear,0,2012-12-12 12:50:00
8:50 AM,26.6,24.8,93,30.37,7.0,South,4.6,-,N/A,,Clear,180,2012-12-12 13:50:00
9:50 AM,28.4,24.8,86,30.39,7.0,Calm,Calm,-,N/A,,Clear,0,2012-12-12 14:50:00
10:50 AM,32.0,26.6,80,30.40,10.0,Calm,Calm,-,N/A,,Clear,0,2012-12-12 15:50:00
12:50 PM,37.4,26.6,65,30.38,10.0,SSE,6.9,-,N/A,,Clear,150,2012-12-12 17:50:00
1:50 PM,39.2,26.6,61,30.36,10.0,South,3.5,-,N/A,,Clear,170,2012-12-12 18:50:00
2:50 PM,39.2,26.6,61,30.36,10.0,South,4.6,-,N/A,,Clear,170,2012-12-12 19:50:00
3:55 PM,39.2,26.6,61,30.36,10.0,Calm,Calm,-,N/A,,Clear,0,2012-12-12 20:55:00
4:55 PM,37.4,26.6,65,30.37,10.0,Calm,Calm,-,N/A,,Clear,0,2012-12-12 21:55:00
6:55 PM,30.2,24.8,80,30.38,10.0,Calm,Calm,-,N/A,,Clear,0,2012-12-12 23:55:00
8:15 PM,28.2,23.4,82,30.39,10.0,Calm,Calm,-,N/A,,Clear,0,2012-12-13 01:15:00
8:35 PM,26.6,23.2,87,30.39,10.0,Calm,Calm,-,N/A,,Clear,0,2012-12-13 01:35:00
8:55 PM,27.1,23.7,87,30.39,10.0,North,-9999.0,-,N/A,,Clear,0,2012-12-13 01:55:00
9:15 PM,27.5,24.1,87,30.40,10.0,North,-9999.0,-,N/A,,Clear,0,2012-12-13 02:15:00
9:35 PM,27.5,23.9,86,30.40,10.0,North,-9999.0,-,N/A,,Clear,0,2012-12-13 02:35:00
9:55 PM,27.5,23.9,86,30.40,10.0,North,-9999.0,-,N/A,,Clear,0,2012-12-13 02:55:00
10:15 PM,27.1,24.4,90,30.40,10.0,Calm,Calm,-,N/A,,Clear,0,2012-12-13 03:15:00
10:35 PM,26.6,24.3,91,30.40,10.0,Calm,Calm,-,N/A,,Clear,0,2012-12-13 03:35:00
10:55 PM,26.1,23.7,91,30.40,10.0,Calm,Calm,-,N/A,,Clear,0,2012-12-13 03:55:00
11:15 PM,27.0,24.1,89,30.40,10.0,Calm,Calm,-,N/A,,Clear,0,2012-12-13 04:15:00
11:35 PM,26.6,23.4,88,30.40,7.0,North,3.5,-,N/A,,Clear,10,2012-12-13 04:35:00
11:55 PM,25.5,22.3,88,30.39,10.0,Calm,Calm,-,N/A,,Clear,0,2012-12-13 04:55:00